Location: Buckland
(65.9785°N, 161.1281°W)
Time: 23:06:12
(UTC+00:00)

Transit 4A - Visible Passes

Search period start: 29 July 2021 00:00
Search period end: 08 August 2021 00:00
Orbit: 872 x 972 km, 66.8° (Epoch: 29 July)

Date Brightness Start Highest point End Pass type
(mag) Time Alt. Az. Time Alt. Az. Time Alt. Az.
01 Aug 8.9 10:43:30 10° S 10:48:20 27° ESE 10:53:08 10° ENE visible
02 Aug 8.7 10:52:13 10° S 10:57:23 33° SE 11:02:32 10° ENE visible
03 Aug 8.4 11:01:05 10° SSW 11:06:29 40° SE 11:11:53 10° ENE visible
04 Aug 8.2 11:10:03 10° SSW 11:15:37 48° SE 11:21:13 10° ENE visible
05 Aug 9.0 09:34:53 10° SSE 09:39:24 24° ESE 09:43:55 10° ENE visible
05 Aug 8.0 11:19:07 10° SW 11:24:49 56° SE 11:30:31 10° ENE visible
06 Aug 8.7 09:43:29 10° S 09:48:25 29° ESE 09:53:21 10° ENE visible
06 Aug 7.9 11:28:15 10° SW 11:34:02 65° SSE 11:39:50 10° ENE visible
07 Aug 8.5 09:52:15 10° S 09:57:29 35° SE 10:02:44 10° ENE visible
07 Aug 7.8 11:37:28 10° SW 11:43:18 74° SSE 11:49:09 10° ENE visible
